Location: Newark
(36.1358°N, 115.1208°W)
Time: 13:55:46
(UTC+00:00)

Vanguard 3 - Visible Passes

Search period start: 17 February 2020 00:00
Search period end: 27 February 2020 00:00
Orbit: 508 x 3263 km, 33.3° (Epoch: 16 February)

Date Brightness Start Highest point End Pass type
(mag) Time Alt. Az. Time Alt. Az. Time Alt. Az.
17 Feb 11.4 01:35:37 10° W 01:50:09 35° SW 02:06:46 10° SSE visible
18 Feb 11.6 02:37:26 10° W 02:48:52 20° SW 03:01:01 10° S visible
20 Feb 11.8 02:22:19 10° WSW 02:31:39 16° SW 02:41:45 10° S visible
22 Feb 12.0 02:08:20 10° WSW 02:14:36 13° SW 02:21:18 10° SSW visible
